Time,TemperatureF,DewpointF,PressureIn,WindDirection,WindDirectionDegrees,WindSpeedMPH,WindSpeedGustMPH,Humidity,HourlyPrecipIn,Conditions,Clouds,dailyrainin,SoftwareType,DateUTC
2013-09-26 00:00:00,63.3,61.5,29.92,ESE,107,0.0,0.0,94,0.00,,,0.00,Wunderground v.1.15,2013-09-26 04:00:00,
2013-09-26 00:05:00,63.3,61.5,29.92,ESE,107,0.0,0.0,94,0.00,,,0.00,Wunderground v.1.15,2013-09-26 04:05:00,
2013-09-26 00:10:00,63.3,61.5,29.92,ESE,107,0.0,0.0,94,0.00,,,0.00,Wunderground v.1.15,2013-09-26 04:10:00,
2013-09-26 00:15:00,63.3,61.2,29.92,ESE,107,0.0,0.0,93,0.00,,,0.00,Wunderground v.1.15,2013-09-26 04:15:00,
2013-09-26 00:20:00,63.4,61.3,29.91,ESE,107,0.0,0.0,93,0.00,,,0.00,Wunderground v.1.15,2013-09-26 04:20:00,
2013-09-26 00:25:00,63.4,61.3,29.92,ESE,107,0.0,0.0,93,0.00,,,0.00,Wunderground v.1.15,2013-09-26 04:25:00,
2013-09-26 00:35:00,63.5,61.4,29.92,ESE,107,0.0,0.0,93,0.00,,,0.00,Wunderground v.1.15,2013-09-26 04:35:00,
2013-09-26 00:40:00,63.4,61.0,29.92,ESE,107,0.0,0.0,92,0.00,,,0.00,Wunderground v.1.15,2013-09-26 04:40:00,
2013-09-26 00:45:00,63.2,60.8,29.92,ESE,107,0.0,0.0,92,0.00,,,0.00,Wunderground v.1.15,2013-09-26 04:45:00,
2013-09-26 00:50:00,63.2,60.8,29.93,ESE,107,0.0,0.0,92,0.00,,,0.00,Wunderground v.1.15,2013-09-26 04:50:00,
2013-09-26 00:55:00,63.1,60.7,29.93,ESE,107,0.0,0.0,92,0.00,,,0.00,Wunderground v.1.15,2013-09-26 04:55:00,
2013-09-26 01:00:00,63.1,60.7,29.93,ESE,107,0.0,0.0,92,0.00,,,0.00,Wunderground v.1.15,2013-09-26 05:00:00,
2013-09-26 01:10:00,63.1,60.7,29.92,ESE,107,0.0,0.0,92,0.00,,,0.00,Wunderground v.1.15,2013-09-26 05:10:00,
2013-09-26 01:15:00,63.1,60.7,29.92,ESE,107,0.0,0.0,92,0.00,,,0.00,Wunderground v.1.15,2013-09-26 05:15:00,
2013-09-26 01:20:00,63.0,60.6,29.92,ESE,107,0.0,0.0,92,0.00,,,0.00,Wunderground v.1.15,2013-09-26 05:20:00,
2013-09-26 01:25:00,63.0,60.6,29.92,ESE,107,0.0,0.0,92,0.00,,,0.00,Wunderground v.1.15,2013-09-26 05:25:00,
2013-09-26 01:30:00,63.0,60.6,29.92,ESE,107,0.0,0.0,92,0.00,,,0.00,Wunderground v.1.15,2013-09-26 05:30:00,
2013-09-26 01:35:00,62.9,60.5,29.92,ESE,107,0.0,0.0,92,0.00,,,0.00,Wunderground v.1.15,2013-09-26 05:35:00,
2013-09-26 01:40:00,62.6,59.9,29.91,ESE,107,0.0,0.0,91,0.00,,,0.00,Wunderground v.1.15,2013-09-26 05:40:00,
2013-09-26 01:50:00,62.2,59.8,29.91,ESE,107,0.0,0.0,92,0.00,,,0.00,Wunderground v.1.15,2013-09-26 05:50:00,
2013-09-26 01:55:00,62.0,59.6,29.91,ESE,107,0.0,0.0,92,0.00,,,0.00,Wunderground v.1.15,2013-09-26 05:55:00,
2013-09-26 02:00:00,61.9,59.5,29.91,ESE,107,0.0,0.0,92,0.00,,,0.00,Wunderground v.1.15,2013-09-26 06:00:00,
2013-09-26 02:10:00,61.9,59.5,29.91,ESE,107,0.0,0.0,92,0.00,,,0.00,Wunderground v.1.15,2013-09-26 06:10:00,
2013-09-26 02:20:00,61.8,59.5,29.91,ESE,107,0.0,0.0,92,0.00,,,0.00,Wunderground v.1.15,2013-09-26 06:20:00,
2013-09-26 02:25:00,61.9,59.5,29.91,ESE,107,0.0,0.0,92,0.00,,,0.00,Wunderground v.1.15,2013-09-26 06:25:00,
2013-09-26 02:30:00,61.9,59.2,29.91,ESE,107,0.0,0.0,91,0.00,,,0.00,Wunderground v.1.15,2013-09-26 06:30:00,
2013-09-26 02:35:00,61.9,59.5,29.91,ESE,107,0.0,0.0,92,0.00,,,0.00,Wunderground v.1.15,2013-09-26 06:35:00,
2013-09-26 02:40:00,61.9,59.5,29.91,ESE,107,0.0,0.0,92,0.00,,,0.00,Wunderground v.1.15,2013-09-26 06:40:00,
2013-09-26 02:45:00,61.9,59.2,29.91,ESE,107,0.0,0.0,91,0.00,,,0.00,Wunderground v.1.15,2013-09-26 06:45:00,
2013-09-26 02:50:00,61.8,59.5,29.91,ESE,107,0.0,0.0,92,0.00,,,0.00,Wunderground v.1.15,2013-09-26 06:50:00,
2013-09-26 03:00:00,61.8,59.5,29.91,ESE,107,0.0,0.0,92,0.00,,,0.00,Wunderground v.1.15,2013-09-26 07:00:00,
2013-09-26 03:10:00,61.7,59.4,29.91,ESE,107,0.0,0.0,92,0.00,,,0.00,Wunderground v.1.15,2013-09-26 07:10:00,
2013-09-26 03:15:00,61.7,59.4,29.90,ESE,107,0.0,0.0,92,0.00,,,0.00,Wunderground v.1.15,2013-09-26 07:15:00,
2013-09-26 03:20:00,61.6,59.3,29.90,ESE,107,0.0,0.0,92,0.00,,,0.00,Wunderground v.1.15,2013-09-26 07:20:00,
2013-09-26 03:25:00,61.6,59.3,29.90,ESE,107,0.0,0.0,92,0.00,,,0.00,Wunderground v.1.15,2013-09-26 07:25:00,
2013-09-26 03:35:00,61.4,59.1,29.90,ESE,107,0.0,0.0,92,0.00,,,0.00,Wunderground v.1.15,2013-09-26 07:35:00,
2013-09-26 03:40:00,61.4,59.1,29.90,ESE,106,0.0,0.0,92,0.00,,,0.00,Wunderground v.1.15,2013-09-26 07:40:00,
2013-09-26 03:45:00,61.4,59.1,29.90,ESE,106,0.0,0.0,92,0.00,,,0.00,Wunderground v.1.15,2013-09-26 07:45:00,
2013-09-26 03:50:00,61.4,59.1,29.90,ESE,106,0.0,0.0,92,0.00,,,0.00,Wunderground v.1.15,2013-09-26 07:50:00,
2013-09-26 03:55:00,61.4,59.1,29.90,ESE,106,0.0,0.0,92,0.00,,,0.00,Wunderground v.1.15,2013-09-26 07:55:00,
2013-09-26 04:00:00,61.4,59.1,29.90,ESE,106,0.0,0.0,92,0.00,,,0.00,Wunderground v.1.15,2013-09-26 08:00:00,
2013-09-26 04:10:00,61.3,59.0,29.90,ESE,106,0.0,0.0,92,0.00,,,0.00,Wunderground v.1.15,2013-09-26 08:10:00,
2013-09-26 04:15:00,61.3,59.0,29.90,ESE,106,0.0,0.0,92,0.00,,,0.00,Wunderground v.1.15,2013-09-26 08:15:00,
2013-09-26 04:20:00,61.3,59.0,29.91,ESE,106,0.0,0.0,92,0.00,,,0.00,Wunderground v.1.15,2013-09-26 08:20:00,
2013-09-26 04:25:00,61.3,59.0,29.91,ESE,106,0.0,0.0,92,0.00,,,0.00,Wunderground v.1.15,2013-09-26 08:25:00,
2013-09-26 04:30:00,61.3,59.0,29.91,ESE,106,0.0,0.0,92,0.00,,,0.00,Wunderground v.1.15,2013-09-26 08:30:00,
2013-09-26 04:35:00,61.2,58.9,29.91,ESE,106,0.0,0.0,92,0.00,,,0.00,Wunderground v.1.15,2013-09-26 08:35:00,
2013-09-26 04:40:00,61.2,58.9,29.91,ESE,106,0.0,0.0,92,0.00,,,0.00,Wunderground v.1.15,2013-09-26 08:40:00,
2013-09-26 04:50:00,61.2,58.9,29.91,ESE,106,0.0,0.0,92,0.00,,,0.00,Wunderground v.1.15,2013-09-26 08:50:00,
2013-09-26 04:55:00,61.1,59.1,29.91,ESE,106,0.0,0.0,93,0.00,,,0.00,Wunderground v.1.15,2013-09-26 08:55:00,
2013-09-26 05:00:00,61.1,59.1,29.91,ESE,106,0.0,0.0,93,0.00,,,0.00,Wunderground v.1.15,2013-09-26 09:00:00,
2013-09-26 05:10:00,61.0,59.0,29.91,ESE,106,0.0,0.0,93,0.00,,,0.00,Wunderground v.1.15,2013-09-26 09:10:00,
2013-09-26 05:15:00,60.9,58.9,29.91,ESE,106,0.0,0.0,93,0.00,,,0.00,Wunderground v.1.15,2013-09-26 09:15:00,
2013-09-26 05:25:00,60.8,58.8,29.91,ESE,106,0.0,0.0,93,0.00,,,0.00,Wunderground v.1.15,2013-09-26 09:25:00,
2013-09-26 05:30:00,60.8,58.8,29.92,ESE,106,0.0,0.0,93,0.00,,,0.00,Wunderground v.1.15,2013-09-26 09:30:00,
2013-09-26 05:35:00,60.8,58.8,29.92,ESE,106,0.0,0.0,93,0.00,,,0.00,Wunderground v.1.15,2013-09-26 09:35:00,
2013-09-26 05:40:00,60.7,58.7,29.92,ESE,106,0.0,0.0,93,0.00,,,0.00,Wunderground v.1.15,2013-09-26 09:40:00,
2013-09-26 05:45:00,60.7,59.0,29.92,ESE,106,0.0,0.0,94,0.00,,,0.00,Wunderground v.1.15,2013-09-26 09:45:00,
2013-09-26 05:50:00,60.6,58.9,29.92,ESE,106,0.0,0.0,94,0.00,,,0.00,Wunderground v.1.15,2013-09-26 09:50:00,
2013-09-26 06:00:00,60.4,58.7,29.92,ESE,106,0.0,0.0,94,0.00,,,0.00,Wunderground v.1.15,2013-09-26 10:00:00,
2013-09-26 06:10:00,60.3,58.6,29.92,ESE,106,0.0,0.0,94,0.00,,,0.00,Wunderground v.1.15,2013-09-26 10:10:00,
2013-09-26 06:15:00,60.2,58.5,29.92,ESE,106,0.0,0.0,94,0.00,,,0.00,Wunderground v.1.15,2013-09-26 10:15:00,
2013-09-26 06:20:00,60.1,58.4,29.92,ESE,106,0.0,0.0,94,0.00,,,0.00,Wunderground v.1.15,2013-09-26 10:20:00,
2013-09-26 06:25:00,60.0,58.3,29.92,ESE,106,0.0,0.0,94,0.00,,,0.00,Wunderground v.1.15,2013-09-26 10:25:00,
2013-09-26 06:35:00,59.6,57.9,29.92,ESE,106,0.0,0.0,94,0.00,,,0.00,Wunderground v.1.15,2013-09-26 10:35:00,
2013-09-26 06:40:00,59.5,57.8,29.93,ESE,106,0.0,0.0,94,0.00,,,0.00,Wunderground v.1.15,2013-09-26 10:40:00,
2013-09-26 06:45:00,59.4,58.0,29.93,ESE,106,0.0,0.0,95,0.00,,,0.00,Wunderground v.1.15,2013-09-26 10:45:00,
2013-09-26 06:50:00,59.4,57.7,29.93,ESE,106,0.0,0.0,94,0.00,,,0.00,Wunderground v.1.15,2013-09-26 10:50:00,
2013-09-26 06:55:00,59.3,57.9,29.93,ESE,106,0.0,0.0,95,0.00,,,0.00,Wunderground v.1.15,2013-09-26 10:55:00,
2013-09-26 07:00:00,59.1,57.7,29.93,ESE,106,0.0,0.0,95,0.00,,,0.00,Wunderground v.1.15,2013-09-26 11:00:00,
2013-09-26 07:10:00,59.0,57.6,29.93,ESE,106,0.0,0.0,95,0.00,,,0.00,Wunderground v.1.15,2013-09-26 11:10:00,
2013-09-26 07:15:00,58.9,57.5,29.93,ESE,106,0.0,0.0,95,0.00,,,0.00,Wunderground v.1.15,2013-09-26 11:15:00,
2013-09-26 07:20:00,58.8,57.4,29.93,ESE,106,0.0,0.0,95,0.00,,,0.00,Wunderground v.1.15,2013-09-26 11:20:00,
2013-09-26 07:25:00,58.7,57.3,29.93,ESE,106,0.0,0.0,95,0.00,,,0.00,Wunderground v.1.15,2013-09-26 11:25:00,
2013-09-26 07:30:00,58.7,57.3,29.94,ESE,106,0.0,0.0,95,0.00,,,0.00,Wunderground v.1.15,2013-09-26 11:30:00,
2013-09-26 07:35:00,58.7,57.3,29.94,ESE,106,0.0,0.0,95,0.00,,,0.00,Wunderground v.1.15,2013-09-26 11:35:00,
2013-09-26 07:40:00,58.7,57.3,29.94,ESE,106,0.0,0.0,95,0.00,,,0.00,Wunderground v.1.15,2013-09-26 11:40:00,
2013-09-26 07:50:00,58.6,57.2,29.94,ESE,106,0.0,0.0,95,0.00,,,0.00,Wunderground v.1.15,2013-09-26 11:50:00,
2013-09-26 07:55:00,58.6,57.5,29.94,ESE,106,0.0,0.0,96,0.00,,,0.00,Wunderground v.1.15,2013-09-26 11:55:00,
2013-09-26 08:00:00,58.6,57.5,29.94,ESE,106,0.0,0.0,96,0.00,,,0.00,Wunderground v.1.15,2013-09-26 12:00:00,
2013-09-26 08:10:00,58.7,57.6,29.94,ESE,106,0.0,0.0,96,0.00,,,0.00,Wunderground v.1.15,2013-09-26 12:10:00,
2013-09-26 08:15:00,58.8,57.7,29.94,ESE,106,0.0,0.0,96,0.00,,,0.00,Wunderground v.1.15,2013-09-26 12:15:00,
2013-09-26 08:20:00,59.0,57.9,29.94,ESE,106,0.0,0.0,96,0.00,,,0.00,Wunderground v.1.15,2013-09-26 12:20:00,
2013-09-26 08:30:00,59.9,58.8,29.95,ESE,106,0.0,0.0,96,0.00,,,0.00,Wunderground v.1.15,2013-09-26 12:30:00,
2013-09-26 08:35:00,60.5,59.4,29.95,ESE,106,0.0,0.0,96,0.00,,,0.00,Wunderground v.1.15,2013-09-26 12:35:00,
2013-09-26 08:40:00,61.2,60.1,29.95,ESE,106,0.0,0.0,96,0.00,,,0.00,Wunderground v.1.15,2013-09-26 12:40:00,
2013-09-26 08:45:00,61.9,60.5,29.95,East,95,0.0,0.0,95,0.00,,,0.00,Wunderground v.1.15,2013-09-26 12:45:00,
2013-09-26 08:50:00,62.6,60.8,29.96,East,95,0.0,0.0,94,0.00,,,0.00,Wunderground v.1.15,2013-09-26 12:50:00,
2013-09-26 08:55:00,63.3,60.9,29.96,East,93,0.0,0.0,92,0.00,,,0.00,Wunderground v.1.15,2013-09-26 12:55:00,
2013-09-26 09:00:00,64.1,61.1,29.96,East,90,0.0,0.0,90,0.00,,,0.00,Wunderground v.1.15,2013-09-26 13:00:00,
2013-09-26 09:10:00,65.5,61.2,29.96,East,83,0.0,0.0,86,0.00,,,0.00,Wunderground v.1.15,2013-09-26 13:10:00,
2013-09-26 09:15:00,65.8,60.8,29.97,NNE,22,0.0,0.0,84,0.00,,,0.00,Wunderground v.1.15,2013-09-26 13:15:00,
2013-09-26 09:20:00,66.8,61.8,29.97,NNE,23,0.0,0.0,84,0.00,,,0.00,Wunderground v.1.15,2013-09-26 13:20:00,
2013-09-26 09:25:00,67.2,61.9,29.97,NNE,30,1.0,1.0,83,0.00,,,0.00,Wunderground v.1.15,2013-09-26 13:25:00,
2013-09-26 09:30:00,68.0,61.6,29.97,NE,34,1.0,1.0,80,0.00,,,0.00,Wunderground v.1.15,2013-09-26 13:30:00,
2013-09-26 09:35:00,67.6,60.5,29.97,ENE,66,1.0,1.0,78,0.00,,,0.00,Wunderground v.1.15,2013-09-26 13:35:00,
2013-09-26 09:45:00,67.2,60.5,29.97,ENE,64,0.0,1.0,79,0.00,,,0.00,Wunderground v.1.15,2013-09-26 13:45:00,
2013-09-26 09:50:00,67.6,60.5,29.97,ENE,73,0.0,0.0,78,0.00,,,0.00,Wunderground v.1.15,2013-09-26 13:50:00,
2013-09-26 09:55:00,68.1,61.3,29.98,ENE,73,0.0,0.0,79,0.00,,,0.00,Wunderground v.1.15,2013-09-26 13:55:00,
2013-09-26 10:00:00,68.3,61.2,29.98,ENE,73,0.0,0.0,78,0.00,,,0.00,Wunderground v.1.15,2013-09-26 14:00:00,
2013-09-26 10:10:00,68.5,61.7,29.98,NE,56,0.0,0.0,79,0.00,,,0.00,Wunderground v.1.15,2013-09-26 14:10:00,
2013-09-26 10:20:00,69.3,62.1,29.99,ENE,59,1.0,1.0,78,0.00,,,0.00,Wunderground v.1.15,2013-09-26 14:20:00,
2013-09-26 10:25:00,69.3,61.4,29.99,NE,44,0.0,1.0,76,0.00,,,0.00,Wunderground v.1.15,2013-09-26 14:25:00,
2013-09-26 10:30:00,69.2,60.6,29.99,NE,44,0.0,0.0,74,0.00,,,0.00,Wunderground v.1.15,2013-09-26 14:30:00,
2013-09-26 10:35:00,68.7,59.7,29.99,NE,46,0.0,0.0,73,0.00,,,0.00,Wunderground v.1.15,2013-09-26 14:35:00,
2013-09-26 10:40:00,68.6,60.4,29.99,NE,49,1.0,1.0,75,0.00,,,0.00,Wunderground v.1.15,2013-09-26 14:40:00,
2013-09-26 10:45:00,68.6,60.4,29.99,NE,49,1.0,1.0,75,0.00,,,0.00,Wunderground v.1.15,2013-09-26 14:45:00,
2013-09-26 10:55:00,69.1,60.5,29.99,NE,48,0.0,0.0,74,0.00,,,0.00,Wunderground v.1.15,2013-09-26 14:55:00,
2013-09-26 11:00:00,69.1,59.7,29.99,NE,40,1.0,1.0,72,0.00,,,0.00,Wunderground v.1.15,2013-09-26 15:00:00,
2013-09-26 11:10:00,68.9,60.3,29.99,NE,55,0.0,0.0,74,0.00,,,0.00,Wunderground v.1.15,2013-09-26 15:10:00,
2013-09-26 11:15:00,69.1,60.5,29.99,NE,55,1.0,1.0,74,0.00,,,0.00,Wunderground v.1.15,2013-09-26 15:15:00,
2013-09-26 11:20:00,69.2,60.9,29.99,NE,55,0.0,0.0,75,0.00,,,0.00,Wunderground v.1.15,2013-09-26 15:20:00,
2013-09-26 11:30:00,69.0,59.6,29.99,NNW,347,1.0,1.0,72,0.00,,,0.00,Wunderground v.1.15,2013-09-26 15:30:00,
2013-09-26 11:35:00,69.1,58.9,29.99,North,5,1.0,1.0,70,0.00,,,0.00,Wunderground v.1.15,2013-09-26 15:35:00,
2013-09-26 11:40:00,69.3,59.1,29.99,NNE,27,1.0,1.0,70,0.00,,,0.00,Wunderground v.1.15,2013-09-26 15:40:00,
2013-09-26 11:45:00,69.3,59.9,29.99,NNE,29,1.0,1.0,72,0.00,,,0.00,Wunderground v.1.15,2013-09-26 15:45:00,
2013-09-26 11:50:00,69.6,60.2,29.99,NE,35,0.0,2.0,72,0.00,,,0.00,Wunderground v.1.15,2013-09-26 15:50:00,
2013-09-26 11:55:00,69.6,59.0,29.99,NNE,32,0.0,2.0,69,0.00,,,0.00,Wunderground v.1.15,2013-09-26 15:55:00,
2013-09-26 12:00:00,69.4,59.2,29.99,North,5,1.0,4.0,70,0.00,,,0.00,Wunderground v.1.15,2013-09-26 16:00:00,
2013-09-26 12:10:00,69.6,60.6,29.99,NE,34,1.0,1.0,73,0.00,,,0.00,Wunderground v.1.15,2013-09-26 16:10:00,
2013-09-26 12:15:00,69.8,60.8,29.99,NE,51,1.0,1.0,73,0.00,,,0.00,Wunderground v.1.15,2013-09-26 16:15:00,
2013-09-26 12:20:00,70.2,59.1,29.99,NE,51,0.0,0.0,68,0.00,,,0.00,Wunderground v.1.15,2013-09-26 16:20:00,
2013-09-26 12:25:00,70.6,60.7,29.99,NE,46,0.0,1.0,71,0.00,,,0.00,Wunderground v.1.15,2013-09-26 16:25:00,
2013-09-26 12:30:00,70.7,60.4,29.99,NE,36,0.0,0.0,70,0.00,,,0.00,Wunderground v.1.15,2013-09-26 16:30:00,
2013-09-26 12:35:00,71.0,60.3,29.99,NNE,25,1.0,1.0,69,0.00,,,0.00,Wunderground v.1.15,2013-09-26 16:35:00,
2013-09-26 12:45:00,70.8,59.3,29.99,North,11,1.0,1.0,67,0.00,,,0.00,Wunderground v.1.15,2013-09-26 16:45:00,
2013-09-26 12:50:00,71.0,59.5,29.99,NNW,339,0.0,0.0,67,0.00,,,0.00,Wunderground v.1.15,2013-09-26 16:50:00,
2013-09-26 12:55:00,71.0,60.3,29.98,North,9,1.0,4.0,69,0.00,,,0.00,Wunderground v.1.15,2013-09-26 16:55:00,
2013-09-26 13:00:00,71.2,61.3,29.98,NNW,335,2.0,2.0,71,0.00,,,0.00,Wunderground v.1.15,2013-09-26 17:00:00,
2013-09-26 13:10:00,72.2,60.6,29.98,NNW,348,1.0,4.0,67,0.00,,,0.00,Wunderground v.1.15,2013-09-26 17:10:00,
2013-09-26 13:15:00,72.1,61.0,29.98,NNE,13,1.0,4.0,68,0.00,,,0.00,Wunderground v.1.15,2013-09-26 17:15:00,
2013-09-26 13:20:00,73.2,62.4,29.98,NNE,13,1.0,1.0,69,0.00,,,0.00,Wunderground v.1.15,2013-09-26 17:20:00,
2013-09-26 13:30:00,72.7,60.7,29.98,North,355,2.0,2.0,66,0.00,,,0.00,Wunderground v.1.15,2013-09-26 17:30:00,
2013-09-26 13:35:00,72.9,60.4,29.97,NNW,345,1.0,2.0,65,0.00,,,0.00,Wunderground v.1.15,2013-09-26 17:35:00,
2013-09-26 13:40:00,72.9,59.6,29.97,NNE,19,1.0,1.0,63,0.00,,,0.00,Wunderground v.1.15,2013-09-26 17:40:00,
2013-09-26 13:45:00,73.6,59.3,29.97,NW,325,2.0,5.0,61,0.00,,,0.00,Wunderground v.1.15,2013-09-26 17:45:00,
2013-09-26 13:50:00,72.9,60.0,29.97,NNW,336,2.0,7.0,64,0.00,,,0.00,Wunderground v.1.15,2013-09-26 17:50:00,
2013-09-26 13:55:00,73.1,59.8,29.97,NW,320,3.0,7.0,63,0.00,,,0.00,Wunderground v.1.15,2013-09-26 17:55:00,
2013-09-26 14:10:00,74.1,61.1,29.96,NE,49,1.0,1.0,64,0.00,,,0.00,Wunderground v.1.15,2013-09-26 18:10:00,
2013-09-26 14:15:00,74.0,58.8,29.96,ESE,105,2.0,2.0,59,0.00,,,0.00,Wunderground v.1.15,2013-09-26 18:15:00,
2013-09-26 14:20:00,74.2,58.9,29.96,East,96,1.0,1.0,59,0.00,,,0.00,Wunderground v.1.15,2013-09-26 18:20:00,
2013-09-26 14:25:00,73.7,58.9,29.96,NE,44,2.0,2.0,60,0.00,,,0.00,Wunderground v.1.15,2013-09-26 18:25:00,
2013-09-26 14:30:00,74.0,60.6,29.96,NW,323,3.0,3.0,63,0.00,,,0.00,Wunderground v.1.15,2013-09-26 18:30:00,
2013-09-26 14:35:00,74.2,58.9,29.96,NE,35,2.0,3.0,59,0.00,,,0.00,Wunderground v.1.15,2013-09-26 18:35:00,
2013-09-26 14:45:00,75.3,61.4,29.96,NW,306,1.0,1.0,62,0.00,,,0.00,Wunderground v.1.15,2013-09-26 18:45:00,
2013-09-26 14:50:00,75.4,57.6,29.96,NE,48,1.0,1.0,54,0.00,,,0.00,Wunderground v.1.15,2013-09-26 18:50:00,
2013-09-26 14:55:00,75.5,58.7,29.96,ENE,61,1.0,1.0,56,0.00,,,0.00,Wunderground v.1.15,2013-09-26 18:55:00,
2013-09-26 15:00:00,75.4,58.1,29.95,NE,46,1.0,3.0,55,0.00,,,0.00,Wunderground v.1.15,2013-09-26 19:00:00,
2013-09-26 15:10:00,76.2,58.9,29.95,NNW,331,2.0,2.0,55,0.00,,,0.00,Wunderground v.1.15,2013-09-26 19:10:00,
2013-09-26 15:15:00,76.3,58.9,29.95,North,360,1.0,2.0,55,0.00,,,0.00,Wunderground v.1.15,2013-09-26 19:15:00,
2013-09-26 15:20:00,75.9,58.1,29.95,NW,313,1.0,1.0,54,0.00,,,0.00,Wunderground v.1.15,2013-09-26 19:20:00,
2013-09-26 15:25:00,75.8,59.5,29.95,NW,304,2.0,2.0,57,0.00,,,0.00,Wunderground v.1.15,2013-09-26 19:25:00,
2013-09-26 15:35:00,75.1,55.7,29.96,NW,320,3.0,6.0,51,0.00,,,0.00,Wunderground v.1.15,2013-09-26 19:35:00,
2013-09-26 15:40:00,75.5,55.6,29.96,NNW,342,2.0,2.0,50,0.00,,,0.00,Wunderground v.1.15,2013-09-26 19:40:00,
2013-09-26 15:50:00,75.8,55.8,29.96,NNW,338,2.0,2.0,50,0.00,,,0.00,Wunderground v.1.15,2013-09-26 19:50:00,
2013-09-26 16:00:00,76.4,54.1,29.96,ENE,63,1.0,1.0,46,0.00,,,0.00,Wunderground v.1.15,2013-09-26 20:00:00,
2013-09-26 16:10:00,76.2,56.2,29.96,East,80,0.0,0.0,50,0.00,,,0.00,Wunderground v.1.15,2013-09-26 20:10:00,
2013-09-26 16:15:00,75.9,55.9,29.96,NNE,26,1.0,2.0,50,0.00,,,0.00,Wunderground v.1.15,2013-09-26 20:15:00,
2013-09-26 16:20:00,75.9,55.4,29.96,NW,311,1.0,1.0,49,0.00,,,0.00,Wunderground v.1.15,2013-09-26 20:20:00,
2013-09-26 16:30:00,76.3,56.8,29.96,NNW,337,0.0,0.0,51,0.00,,,0.00,Wunderground v.1.15,2013-09-26 20:30:00,
2013-09-26 16:40:00,76.3,57.4,29.96,NW,317,1.0,1.0,52,0.00,,,0.00,Wunderground v.1.15,2013-09-26 20:40:00,
2013-09-26 16:45:00,76.0,54.9,29.96,North,5,1.0,3.0,48,0.00,,,0.00,Wunderground v.1.15,2013-09-26 20:45:00,
2013-09-26 19:05:00,68.2,60.3,29.99,ENE,68,0.0,0.0,76,0.00,,,0.00,Wunderground v.1.15,2013-09-26 23:05:00,
2013-09-26 19:10:00,67.6,60.1,29.99,ENE,68,0.0,0.0,77,0.00,,,0.00,Wunderground v.1.15,2013-09-26 23:10:00,
2013-09-26 19:15:00,67.0,60.3,29.99,ENE,68,0.0,0.0,79,0.00,,,0.00,Wunderground v.1.15,2013-09-26 23:15:00,
2013-09-26 19:20:00,66.5,59.8,29.99,ENE,68,0.0,0.0,79,0.00,,,0.00,Wunderground v.1.15,2013-09-26 23:20:00,
2013-09-26 19:25:00,66.1,59.7,29.99,ENE,68,0.0,0.0,80,0.00,,,0.00,Wunderground v.1.15,2013-09-26 23:25:00,
2013-09-26 19:30:00,65.8,59.8,30.00,ENE,68,0.0,0.0,81,0.00,,,0.00,Wunderground v.1.15,2013-09-26 23:30:00,
2013-09-26 19:40:00,65.2,59.6,30.00,ENE,68,0.0,0.0,82,0.00,,,0.00,Wunderground v.1.15,2013-09-26 23:40:00,
2013-09-26 19:45:00,64.9,59.6,30.00,ENE,68,0.0,0.0,83,0.00,,,0.00,Wunderground v.1.15,2013-09-26 23:45:00,
2013-09-26 19:55:00,64.3,59.0,30.00,ENE,68,0.0,0.0,83,0.00,,,0.00,Wunderground v.1.15,2013-09-26 23:55:00,
2013-09-26 20:00:00,64.0,59.1,30.00,ENE,68,0.0,0.0,84,0.00,,,0.00,Wunderground v.1.15,2013-09-27 00:00:00,
2013-09-26 20:10:00,63.6,58.7,30.01,ENE,68,0.0,0.0,84,0.00,,,0.00,Wunderground v.1.15,2013-09-27 00:10:00,
2013-09-26 20:15:00,63.4,58.8,30.01,ENE,68,0.0,0.0,85,0.00,,,0.00,Wunderground v.1.15,2013-09-27 00:15:00,
2013-09-26 20:20:00,63.2,58.6,30.01,ENE,68,0.0,0.0,85,0.00,,,0.00,Wunderground v.1.15,2013-09-27 00:20:00,
2013-09-26 20:30:00,62.9,58.6,30.01,ENE,68,0.0,0.0,86,0.00,,,0.00,Wunderground v.1.15,2013-09-27 00:30:00,
2013-09-26 20:35:00,62.8,58.5,30.01,ENE,68,0.0,0.0,86,0.00,,,0.00,Wunderground v.1.15,2013-09-27 00:35:00,
2013-09-26 20:40:00,62.7,58.1,30.02,ENE,68,0.0,0.0,85,0.00,,,0.00,Wunderground v.1.15,2013-09-27 00:40:00,
2013-09-26 20:45:00,63.0,58.1,30.02,ENE,68,0.0,0.0,84,0.00,,,0.00,Wunderground v.1.15,2013-09-27 00:45:00,
2013-09-26 20:50:00,63.3,58.0,30.02,ENE,68,0.0,0.0,83,0.00,,,0.00,Wunderground v.1.15,2013-09-27 00:50:00,
2013-09-26 20:55:00,63.6,58.0,30.02,ENE,68,0.0,0.0,82,0.00,,,0.00,Wunderground v.1.15,2013-09-27 00:55:00,
2013-09-26 21:00:00,63.7,58.1,30.02,ENE,68,0.0,0.0,82,0.00,,,0.00,Wunderground v.1.15,2013-09-27 01:00:00,
2013-09-26 21:10:00,63.6,58.0,30.03,ENE,68,0.0,0.0,82,0.00,,,0.00,Wunderground v.1.15,2013-09-27 01:10:00,
2013-09-26 21:15:00,63.5,57.9,30.03,ENE,68,0.0,0.0,82,0.00,,,0.00,Wunderground v.1.15,2013-09-27 01:15:00,
2013-09-26 21:20:00,63.5,57.9,30.03,ENE,68,0.0,0.0,82,0.00,,,0.00,Wunderground v.1.15,2013-09-27 01:20:00,
2013-09-26 21:25:00,63.4,57.8,30.03,ENE,68,0.0,0.0,82,0.00,,,0.00,Wunderground v.1.15,2013-09-27 01:25:00,
2013-09-26 21:30:00,63.3,57.7,30.04,ENE,68,0.0,0.0,82,0.00,,,0.00,Wunderground v.1.15,2013-09-27 01:30:00,
2013-09-26 21:40:00,62.9,57.7,30.04,ENE,68,0.0,0.0,83,0.00,,,0.00,Wunderground v.1.15,2013-09-27 01:40:00,
2013-09-26 21:45:00,62.7,57.8,30.04,ENE,68,0.0,0.0,84,0.00,,,0.00,Wunderground v.1.15,2013-09-27 01:45:00,
2013-09-26 21:50:00,62.5,57.9,30.04,ENE,68,0.0,0.0,85,0.00,,,0.00,Wunderground v.1.15,2013-09-27 01:50:00,
2013-09-26 21:55:00,62.3,57.7,30.04,ENE,68,0.0,0.0,85,0.00,,,0.00,Wunderground v.1.15,2013-09-27 01:55:00,
2013-09-26 22:00:00,62.0,57.8,30.04,ENE,68,0.0,0.0,86,0.00,,,0.00,Wunderground v.1.15,2013-09-27 02:00:00,
2013-09-26 22:10:00,61.5,57.6,30.05,ENE,68,0.0,0.0,87,0.00,,,0.00,Wunderground v.1.15,2013-09-27 02:10:00,
2013-09-26 22:15:00,61.3,57.4,30.05,ENE,68,0.0,0.0,87,0.00,,,0.00,Wunderground v.1.15,2013-09-27 02:15:00,
2013-09-26 22:20:00,61.0,57.4,30.05,ENE,68,0.0,0.0,88,0.00,,,0.00,Wunderground v.1.15,2013-09-27 02:20:00,
2013-09-26 22:25:00,60.8,57.2,30.05,ENE,68,0.0,0.0,88,0.00,,,0.00,Wunderground v.1.15,2013-09-27 02:25:00,
2013-09-26 22:30:00,60.6,57.0,30.05,ENE,68,0.0,0.0,88,0.00,,,0.00,Wunderground v.1.15,2013-09-27 02:30:00,
2013-09-26 22:40:00,60.3,57.0,30.05,ENE,68,0.0,0.0,89,0.00,,,0.00,Wunderground v.1.15,2013-09-27 02:40:00,
2013-09-26 22:45:00,60.1,56.8,30.06,ENE,68,0.0,0.0,89,0.00,,,0.00,Wunderground v.1.15,2013-09-27 02:45:00,
2013-09-26 22:50:00,59.9,57.0,30.06,ENE,68,0.0,0.0,90,0.00,,,0.00,Wunderground v.1.15,2013-09-27 02:50:00,
2013-09-26 22:55:00,59.7,56.8,30.05,ENE,68,0.0,0.0,90,0.00,,,0.00,Wunderground v.1.15,2013-09-27 02:55:00,
2013-09-26 23:01:00,59.6,57.0,30.05,ENE,68,0.0,0.0,91,0.00,,,0.00,Wunderground v.1.15,2013-09-27 03:01:00,
2013-09-26 23:10:00,59.5,56.9,30.05,ENE,68,0.0,0.0,91,0.00,,,0.00,Wunderground v.1.15,2013-09-27 03:10:00,
2013-09-26 23:15:00,59.3,57.0,30.05,ENE,68,0.0,0.0,92,0.00,,,0.00,Wunderground v.1.15,2013-09-27 03:15:00,
2013-09-26 23:20:00,59.3,57.0,30.06,ENE,68,0.0,0.0,92,0.00,,,0.00,Wunderground v.1.15,2013-09-27 03:20:00,
2013-09-26 23:30:00,59.2,56.9,30.06,ENE,68,0.0,0.0,92,0.00,,,0.00,Wunderground v.1.15,2013-09-27 03:30:00,
2013-09-26 23:35:00,59.2,56.9,30.06,ENE,68,0.0,0.0,92,0.00,,,0.00,Wunderground v.1.15,2013-09-27 03:35:00,
2013-09-26 23:40:00,59.1,56.8,30.06,ENE,68,0.0,0.0,92,0.00,,,0.00,Wunderground v.1.15,2013-09-27 03:40:00,
2013-09-26 23:45:00,59.0,56.7,30.06,ENE,68,0.0,0.0,92,0.00,,,0.00,Wunderground v.1.15,2013-09-27 03:45:00,
2013-09-26 23:50:00,58.9,56.6,30.06,ENE,68,0.0,0.0,92,0.00,,,0.00,Wunderground v.1.15,2013-09-27 03:50:00,
2013-09-26 23:55:00,58.9,56.9,30.06,ENE,68,0.0,0.0,93,0.00,,,0.00,Wunderground v.1.15,2013-09-27 03:55:00,